Location: Coatesville
(39.9830°N, 75.8240°W)
Time: 16:30:02
(UTC-04:00)

ISS - Visible Passes

Search period start: 23 March 2019 00:00
Search period end: 02 April 2019 00:00
Orbit: 408 x 411 km, 51.6° (Epoch: 23 March)

Date Brightness Start Highest point End Pass type
(mag) Time Alt. Az. Time Alt. Az. Time Alt. Az.
23 Mar -3.9 19:56:18 10° SW 19:59:36 84° SE 20:02:54 10° NE visible
23 Mar -1.2 21:34:08 10° WNW 21:36:28 18° NNW 21:36:28 18° NNW visible
24 Mar -1.7 20:42:53 10° W 20:45:43 25° NNW 20:48:18 11° NNE visible
25 Mar -2.5 19:51:48 10° WSW 19:54:56 39° NNW 19:58:04 10° NE visible
25 Mar -0.9 21:30:34 10° NW 21:32:14 13° NNW 21:32:45 13° N visible
26 Mar -1.1 20:39:08 10° WNW 20:41:17 16° NNW 20:43:28 10° NNE visible
27 Mar -1.5 19:47:47 10° WNW 19:50:23 21° NNW 19:53:01 10° NNE visible
27 Mar -0.9 21:26:53 10° NNW 21:27:57 11° N 21:28:31 11° N visible
28 Mar -1.0 20:35:32 10° NW 20:36:56 12° N 20:38:21 10° NNE visible
29 Mar -1.0 21:22:24 10° NNW 21:23:39 12° N 21:24:00 11° NNE visible
30 Mar -1.0 20:31:35 10° NNW 20:32:36 11° N 20:33:37 10° NNE visible
30 Mar -0.5 22:07:45 10° NNW 22:08:04 11° NNW 22:08:04 11° NNW visible
31 Mar -1.3 21:17:15 10° NNW 21:19:15 15° NNE 21:19:21 15° NNE visible
01 Apr -1.2 20:26:43 10° NNW 20:28:13 12° N 20:29:42 10° NE visible
01 Apr -0.8 22:02:32 10° NW 22:03:22 16° NNW 22:03:22 16° NNW visible
